Melfa, VA

6:12 PM EDT on October 20, 2017 (GMT -0400)
Accomack County

Weather History for KMFV - November, 2013

Change the Weather History Date:

Thursday, November 21, 2013

  Actual Average (KWAL) Record (KWAL)
Temperature  
Mean Temperature 50 °F -  
Max Temperature 62 °F 54 °F 75 °F (1991)
Min Temperature 39 °F 38 °F 21 °F (2014)
Degree Days  
Heating Degree Days 14    
Moisture  
Dew Point 45 °F    
Average Humidity 79    
Maximum Humidity 93    
Minimum Humidity 63    
Precipitation  
Precipitation 0.00 in - - ()
Sea Level Pressure  
Sea Level Pressure 30.46 in    
Wind  
Wind Speed 4 mph (ENE)    
Max Wind Speed 14 mph    
Max Gust Speed 18 mph    
Visibility 8 miles    
Events Fog    
Averages and records for this station are not official NWS values.
T = Trace of Precipitation, MM = Missing Value Source: NWS Daily Summary

Daily Weather History Graph

Daily Weather History Graph

Search for Another Location

Airport or City:

Trip Planner

Search our weather history database for the weather conditions in past years. The results will help you decide how hot, cold, wet, or windy it might be!

Date:

Astronomy

Nov. 21, 2013 Rise Set
Actual Time 6:49 AM EST 4:48 PM EST
Civil Twilight 6:21 AM EST 5:16 PM EST
Nautical Twilight 5:49 AM EST 5:48 PM EST
Astronomical Twilight 5:17 AM EST 6:19 PM EST
Moon 8:22 PM EST (11/21) 9:54 AM EST (11/21)
Length of Visible Light 10h 55m
Length of Day
9h 58m
Waning Gibbous, 85% of the Moon is Illuminated
Nov 21
Waning Gibbous
Nov 25
Last Quarter
Dec 2
New
Dec 9
First Quarter
Dec 17
Full

Hourly Weather History & Observations

Time (EST) Temp. Windchill Dew Point Humidity Pressure Visibility Wind Dir Wind Speed Gust Speed Precip Events Conditions
12:15 AM 39.2 °F - 35.6 °F 87% 30.49 in 10.0 mi Calm Calm - N/A   Clear
12:35 AM 39.2 °F 35.9 °F 35.6 °F 87% 30.49 in 10.0 mi NNE 4.6 mph - N/A   Clear
12:56 AM 39.2 °F - 35.6 °F 87% 30.49 in 10.0 mi Calm Calm - N/A   Clear
1:15 AM 39.2 °F 37.0 °F 35.6 °F 87% 30.49 in 10.0 mi North 3.5 mph - N/A   Clear
1:35 AM 39.2 °F 35.9 °F 35.6 °F 87% 30.50 in 10.0 mi North 4.6 mph - N/A   Scattered Clouds
1:55 AM 39.2 °F 35.9 °F 35.6 °F 87% 30.51 in 10.0 mi NNE 4.6 mph - N/A   Mostly Cloudy
2:15 AM 41.0 °F 39.0 °F 35.6 °F 81% 30.51 in 10.0 mi NNE 3.5 mph - N/A   Mostly Cloudy
2:35 AM 41.0 °F - 37.4 °F 87% 30.51 in 10.0 mi Calm Calm - N/A   Mostly Cloudy
2:55 AM 42.8 °F - 37.4 °F 81% 30.50 in 10.0 mi Calm Calm - N/A   Overcast
3:15 AM 42.8 °F - 37.4 °F 81% 30.49 in 10.0 mi Calm Calm - N/A   Overcast
3:35 AM 42.8 °F 40.1 °F 37.4 °F 81% 30.49 in 10.0 mi NE 4.6 mph - N/A   Overcast
3:55 AM 42.8 °F 40.1 °F 37.4 °F 81% 30.49 in 10.0 mi NE 4.6 mph - N/A   Overcast
4:15 AM 42.8 °F 41.1 °F 37.4 °F 81% 30.48 in 10.0 mi NE 3.5 mph - N/A   Overcast
4:35 AM 44.6 °F 42.2 °F 39.2 °F 81% 30.48 in 10.0 mi NE 4.6 mph - N/A   Overcast
4:55 AM 44.6 °F - 39.2 °F 81% 30.48 in 10.0 mi Calm Calm - N/A   Overcast
5:18 AM 44.6 °F 43.1 °F 39.2 °F 81% 30.48 in 10.0 mi NE 3.5 mph - N/A   Overcast
5:35 AM 44.6 °F 41.4 °F 39.2 °F 81% 30.47 in 10.0 mi NE 5.8 mph - N/A   Overcast
5:55 AM 46.4 °F 45.2 °F 39.2 °F 76% 30.48 in 10.0 mi NE 3.5 mph - N/A   Overcast
6:15 AM 46.4 °F 45.2 °F 39.2 °F 76% 30.49 in 10.0 mi NNE 3.5 mph - N/A   Overcast
6:35 AM 46.4 °F - 39.2 °F 76% 30.49 in 10.0 mi Calm Calm - N/A   Overcast
6:55 AM 46.4 °F 45.2 °F 41.0 °F 81% 30.49 in 10.0 mi NE 3.5 mph - N/A   Overcast
7:15 AM 46.4 °F 44.3 °F 42.8 °F 87% 30.49 in 10.0 mi ENE 4.6 mph - N/A   Overcast
7:36 AM 48.2 °F - 42.8 °F 82% 30.49 in 10.0 mi East 6.9 mph - N/A   Overcast
7:55 AM 55.4 °F - 46.4 °F 72% 30.50 in 10.0 mi East 8.1 mph - N/A   Overcast
8:16 AM 57.2 °F - 48.2 °F 72% 30.50 in 10.0 mi East 8.1 mph - N/A   Overcast
8:35 AM 57.2 °F - 48.2 °F 72% 30.49 in 10.0 mi East 8.1 mph - N/A   Overcast
8:55 AM 59.0 °F - 48.2 °F 67% 30.50 in 10.0 mi East 8.1 mph 16.1 mph N/A   Overcast
9:15 AM 59.0 °F - 48.2 °F 67% 30.50 in 10.0 mi East 6.9 mph - N/A   Overcast
9:38 AM 60.8 °F - 48.2 °F 63% 30.50 in 10.0 mi East 12.7 mph 17.3 mph N/A   Scattered Clouds
9:55 AM 59.0 °F - 48.2 °F 67% 30.51 in 10.0 mi East 11.5 mph 16.1 mph N/A   Mostly Cloudy
10:15 AM 60.8 °F - 48.2 °F 63% 30.50 in 10.0 mi East 10.4 mph - N/A   Scattered Clouds
10:35 AM 60.8 °F - 48.2 °F 63% 30.50 in 10.0 mi East 13.8 mph 18.4 mph N/A   Scattered Clouds
10:55 AM 60.8 °F - 48.2 °F 63% 30.49 in 10.0 mi East 6.9 mph - N/A   Mostly Cloudy
11:15 AM 60.8 °F - 48.2 °F 63% 30.49 in 10.0 mi East 8.1 mph - N/A   Overcast
11:35 AM 60.8 °F - 50.0 °F 68% 30.49 in 10.0 mi ENE 9.2 mph - N/A   Overcast
11:55 AM 60.8 °F - 48.2 °F 63% 30.49 in 10.0 mi East 8.1 mph - N/A   Mostly Cloudy
12:15 PM 60.8 °F - 50.0 °F 68% 30.48 in 10.0 mi East 6.9 mph - N/A   Overcast
12:35 PM 60.8 °F - 50.0 °F 68% 30.47 in 10.0 mi ENE 11.5 mph - N/A   Overcast
12:55 PM 60.8 °F - 50.0 °F 68% 30.46 in 10.0 mi East 6.9 mph - N/A   Mostly Cloudy
1:15 PM 62.6 °F - 51.8 °F 68% 30.46 in 10.0 mi East 10.4 mph - N/A   Scattered Clouds
1:35 PM 60.8 °F - 50.0 °F 68% 30.45 in 10.0 mi East 11.5 mph - N/A   Scattered Clouds
1:55 PM 60.8 °F - 51.8 °F 72% 30.45 in 10.0 mi East 5.8 mph - N/A   Mostly Cloudy
2:15 PM 60.8 °F - 51.8 °F 72% 30.44 in 10.0 mi East 6.9 mph - N/A   Overcast
2:36 PM 60.8 °F - 51.8 °F 72% 30.43 in 10.0 mi East 9.2 mph - N/A   Scattered Clouds
2:56 PM 60.8 °F - 51.8 °F 72% 30.43 in 10.0 mi East 4.6 mph - N/A   Scattered Clouds
3:16 PM 62.6 °F - 51.8 °F 68% 30.44 in 10.0 mi ESE 5.8 mph - N/A   Scattered Clouds
3:35 PM 60.8 °F - 51.8 °F 72% 30.44 in 10.0 mi ESE 5.8 mph - N/A   Clear
3:55 PM 60.8 °F - 51.8 °F 72% 30.44 in 10.0 mi ESE 4.6 mph - N/A   Scattered Clouds
4:15 PM 60.8 °F - 51.8 °F 72% 30.44 in 10.0 mi ENE 5.8 mph - N/A   Scattered Clouds
4:35 PM 59.0 °F - 51.8 °F 77% 30.44 in 10.0 mi East 3.5 mph - N/A   Mostly Cloudy
4:55 PM 59.0 °F - 51.8 °F 77% 30.44 in 10.0 mi Calm Calm - N/A   Overcast
5:15 PM 57.2 °F - 51.8 °F 82% 30.44 in 10.0 mi ENE 3.5 mph - N/A   Mostly Cloudy
5:36 PM 57.2 °F - 51.8 °F 82% 30.44 in 10.0 mi Calm Calm - N/A   Scattered Clouds
5:57 PM 55.4 °F - 51.8 °F 88% 30.44 in 10.0 mi Calm Calm - N/A   Clear
6:15 PM 51.8 °F - 48.2 °F 88% 30.44 in 7.0 mi Calm Calm - N/A   Clear
6:35 PM 53.6 °F - 50.0 °F 88% 30.44 in 7.0 mi Calm Calm - N/A   Clear
6:55 PM 53.6 °F - 50.0 °F 88% 30.44 in 1.5 mi Calm Calm - N/A   Mist
7:15 PM 51.8 °F - 48.2 °F 88% 30.44 in 0.8 mi Calm Calm - N/A   Mostly Cloudy
7:35 PM 51.8 °F - 48.2 °F 88% 30.43 in 0.8 mi Calm Calm - N/A   Overcast
7:55 PM 50.0 °F - 46.4 °F 87% 30.44 in 0.5 mi Calm Calm - N/A Fog Fog
8:15 PM 48.2 °F - 46.4 °F 93% 30.44 in 0.5 mi Calm Calm - N/A Fog Fog
8:35 PM 48.2 °F - 46.4 °F 93% 30.44 in 0.2 mi NNW 3.5 mph - N/A Fog Fog
8:55 PM 48.2 °F - 46.4 °F 93% 30.43 in 0.8 mi Calm Calm - N/A   Overcast
9:18 PM 48.2 °F - 46.4 °F 93% 30.42 in 0.2 mi Calm Calm - N/A Fog Fog
9:35 PM 48.2 °F - 46.4 °F 93% 30.43 in 1.0 mi Calm Calm - N/A   Overcast
9:55 PM 48.2 °F - 46.4 °F 93% 30.42 in 7.0 mi Calm Calm - N/A   Mostly Cloudy
10:15 PM 46.4 °F - 44.6 °F 93% 30.42 in 7.0 mi Calm Calm - N/A   Scattered Clouds
10:35 PM 48.2 °F - 44.6 °F 87% 30.41 in 5.0 mi Calm Calm - N/A   Scattered Clouds
10:55 PM 46.4 °F - 44.6 °F 93% 30.41 in 7.0 mi Calm Calm - N/A   Clear
11:15 PM 46.4 °F - 44.6 °F 93% 30.41 in 5.0 mi Calm Calm - N/A   Clear
11:35 PM 46.4 °F - 44.6 °F 93% 30.41 in 2.5 mi Calm Calm - N/A   Clear
11:55 PM 46.4 °F - 44.6 °F 93% 30.40 in 7.0 mi Calm Calm - N/A   Clear